Location: Poughquag
(41.6090°N, 73.6820°W)
Time: 02:18:43
(UTC-04:00)

Vanguard 1 - Pass Details

Date: 03 June 2020
Orbit: 650 x 3833 km, 34.2° (Epoch: 06 July)

Event Time Altitude Azimuth Distance (km) Brightness Sun altitude
Rises 02:14:10 0° 170° (S) 4,903 - -23.3°
Exits shadow 02:18:26 - 151° (SSE) 4,634 13.1 -23.0°
Reaches altitude 10° 02:20:19 10° 142° (SE) 4,640 13.2 -22.9°
Maximum altitude 02:24:51 12° 122° (ESE) 4,934 13.5 -22.6°
Drops below altitude 10° 02:30:10 10° 102° (ESE) 5,646 14.0 -22.2°
Sets 02:40:05 0° 79° (E) 7,418 15.1 -21.4°
